FW3274 Weather Reports


Display with metric or nautical units.
time (UTC)temp
F
wind
direction
speed
MPH
gust
MPH
rain 1hr
in
rain 24hr
in
rain mn
in
humidity
%
barometer
mb
20260905193032 80 46 0.0 0.0 0.00 0.00 0.00 58 1012.2
20260905191536 80 42 0.0 0.0 0.00 0.00 0.00 58 1011.9
20260905190044 81 33 0.0 0.0 0.00 0.00 0.00 57 1011.8
20260905184527 82 33 0.0 0.0 0.00 0.00 0.00 57 1011.5
20260905183025 82 76 0.0 0.0 0.00 0.00 0.00 58 1011.3
20260905181526 83 76 0.0 0.0 0.00 0.00 0.00 56 1011.1
20260905180024 84 76 0.0 0.0 0.00 0.00 0.00 55 1011.0
20260905174524 85 76 0.0 0.0 0.00 0.00 0.00 53 1010.7
20260905173024 86 76 0.0 0.0 0.00 0.00 0.00 52 1010.5
20260905171523 87 74 0.0 0.0 0.00 0.00 0.00 50 1010.4
20260905170023 88 90 0.0 1.0 0.00 0.00 0.00 49 1010.2
20260905164529 89 69 0.0 3.0 0.00 0.00 0.00 47 1010.1
20260905163022 89 93 0.0 1.0 0.00 0.00 0.00 46 1010.0
20260905161521 89 85 0.0 1.0 0.00 0.00 0.00 45 1009.9
20260905160021 90 104 0.0 4.0 0.00 0.00 0.00 45 1009.9
20260905154521 91 70 0.0 2.0 0.00 0.00 0.00 43 1009.8
20260905153024 91 88 0.0 0.0 0.00 0.00 0.00 44 1009.8
20260905151520 91 86 0.0 1.0 0.00 0.00 0.00 43 1009.7
20260905150021 90 60 0.0 2.0 0.00 0.00 0.00 43 1009.7
20260905144520 91 86 0.0 3.0 0.00 0.00 0.00 42 1009.6
20260905143022 92 97 0.0 1.0 0.00 0.00 0.00 43 1009.6
20260905141521 91 95 0.0 3.0 0.00 0.00 0.00 44 1009.8
20260905140015 92 67 0.0 3.0 0.00 0.00 0.00 43 1009.7
20260905134517 91 90 0.0 1.0 0.00 0.00 0.00 43 1009.8
20260905133020 91 88 0.0 2.0 0.00 0.00 0.00 43 1009.9
20260905131524 91 13 0.0 0.0 0.00 0.00 0.00 43 1010.1
20260905130017 90 74 0.0 1.0 0.00 0.00 0.00 48 1010.2
20260905124509 89 72 0.0 3.0 0.00 0.00 0.00 44 1010.3
20260905123008 90 219 0.0 1.0 0.00 0.00 0.00 43 1010.4
20260905121506 89 78 0.0 2.0 0.00 0.00 0.00 45 1010.6
20260905120006 90 204 0.0 0.0 0.00 0.00 0.00 47 1010.9
20260905114505 89 101 0.0 1.0 0.00 0.00 0.00 47 1010.8
20260905113010 89 92 0.0 1.0 0.00 0.00 0.00 47 1010.8
20260905111502 89 73 0.0 1.0 0.00 0.00 0.00 48 1010.9
20260905110001 88 80 0.0 0.0 0.00 0.00 0.00 45 1010.9
20260905104559 88 79 0.0 1.0 0.00 0.00 0.00 48 1011.0
20260905103058 87 85 0.0 2.0 0.00 0.00 0.00 49 1011.0
20260905101557 87 64 0.0 0.0 0.00 0.00 0.00 52 1011.0
20260905100053 85 66 0.0 1.0 0.00 0.00 0.00 52 1011.2
20260905094553 84 75 0.0 0.0 0.00 0.00 0.00 56 1011.1
20260905093053 83 73 0.0 0.0 0.00 0.00 0.00 57 1011.3
20260905091553 83 75 0.0 0.0 0.00 0.00 0.00 60 1011.3
20260905090052 85 74 0.0 0.0 0.00 0.00 0.00 55 1011.1
20260905084555 84 79 0.0 0.0 0.00 0.00 0.00 56 1011.0
20260905083047 84 84 0.0 3.0 0.00 0.00 0.00 56 1010.9
20260905081544 82 90 0.0 0.0 0.00 0.00 0.00 60 1010.8
20260905080046 83 88 0.0 2.0 0.00 0.00 0.00 63 1010.5
20260905074546 81 96 0.0 0.0 0.00 0.00 0.00 64 1010.6
20260905073055 81 95 0.0 0.0 0.00 0.00 0.00 65 1010.4
20260905071543 80 76 0.0 0.0 0.00 0.00 0.00 65 1010.3
20260905070034 79 96 0.0 0.0 0.00 0.00 0.00 65 1010.3
20260905064532 77 90 0.0 0.0 0.00 0.00 0.00 66 1010.2
20260905063030 77 86 0.0 0.0 0.00 0.00 0.00 68 1010.4
20260905061531 77 67 0.0 0.0 0.00 0.00 0.00 68 1010.1
20260905060026 75 67 0.0 0.0 0.00 0.00 0.00 71 1010.1
20260905054538 73 67 0.0 0.0 0.00 0.00 0.00 76 1010.2
20260905053022 71 73 0.0 0.0 0.00 0.00 0.00 76 1010.2
20260905051521 71 75 0.0 0.0 0.00 0.00 0.00 77 1009.8
20260905050021 70 75 0.0 0.0 0.00 0.00 0.00 77 1009.8
20260905044521 71 75 0.0 0.0 0.00 0.00 0.00 77 1009.8
20260905043025 71 75 0.0 0.0 0.00 0.00 0.00 77 1010.0
20260905041517 71 75 0.0 0.0 0.00 0.00 0.00 76 1010.0
20260905040021 71 75 0.0 0.0 0.00 0.00 0.00 76 1010.0
20260905034516 71 75 0.0 0.0 0.00 0.00 0.00 76 1010.0
20260905033015 71 75 0.0 0.0 0.00 0.00 0.00 76 1010.1
20260905031513 71 75 0.0 0.0 0.00 0.00 0.00 76 1010.1
20260905030014 71 75 0.0 0.0 0.00 0.00 0.00 76 1010.2
20260905024514 71 75 0.0 0.0 0.00 0.00 0.00 76 1010.1
20260905023019 71 75 0.0 0.0 0.00 0.00 0.00 76 1010.0
20260905021512 71 75 0.0 0.0 0.00 0.00 0.00 76 1010.1
20260905020011 71 76 0.0 0.0 0.00 0.00 0.00 76 1010.2
20260905014510 71 84 0.0 0.0 0.00 0.00 0.00 75 1010.1
20260905013009 71 85 0.0 0.0 0.00 0.00 0.00 74 1010.1
20260905011508 71 200 0.0 0.0 0.00 0.00 0.00 72 1010.2
20260905010008 71 210 0.0 0.0 0.00 0.00 0.00 70 1010.3
20260905004507 71 211 0.0 0.0 0.00 0.00 0.00 70 1010.2
20260905003003 72 211 0.0 0.0 0.00 0.00 0.00 71 1010.4
20260905001501 72 211 0.0 0.0 0.00 0.00 0.00 72 1010.5
20260905000104 72 211 0.0 0.0 0.00 0.00 0.00 71 1010.6
20260904234559 72 211 0.0 0.0 0.00 0.00 0.00 69 1010.7
20260904233056 73 211 0.0 0.0 0.00 0.00 0.00 68 1010.8
20260904231555 73 211 0.0 0.0 0.00 0.00 0.00 67 1011.0
20260904230054 73 211 0.0 0.0 0.00 0.00 0.00 67 1011.1
20260904224603 73 211 0.0 0.0 0.00 0.00 0.00 66 1011.1
20260904223051 74 211 0.0 0.0 0.00 0.00 0.00 66 1011.1
20260904221549 74 211 0.0 0.0 0.00 0.00 0.00 65 1011.1
20260904220046 74 211 0.0 0.0 0.00 0.00 0.00 64 1011.2
20260904214549 75 211 0.0 0.0 0.00 0.00 0.00 65 1011.3
20260904213045 75 211 0.0 0.0 0.00 0.00 0.00 64 1011.3
20260904211545 76 211 0.0 0.0 0.00 0.00 0.00 64 1011.3
20260904210051 76 211 0.0 0.0 0.00 0.00 0.00 64 1011.5
20260904204544 76 211 0.0 0.0 0.00 0.00 0.00 65 1011.4
20260904203044 77 211 0.0 0.0 0.00 0.00 0.00 65 1011.5
20260904201552 77 211 0.0 0.0 0.00 0.00 0.00 65 1011.5
20260904200042 78 211 0.0 0.0 0.00 0.00 0.00 65 1011.5
20260904194558 78 211 0.0 0.0 0.00 0.00 0.00 64 1011.6